Gastonia, NC

12:02 AM EDT on September 21, 2017 (GMT -0400)
Gastonia Municipal

Weather History for KAKH - July, 2013

Change the Weather History Date:

Tuesday, July 2, 2013

  Actual Average (KCLT) Record (KCLT)
Temperature  
Mean Temperature 74 °F -  
Max Temperature 79 °F 87 °F 101 °F (1931)
Min Temperature 71 °F 67 °F 56 °F (2008)
Cooling Degree Days 9    
Growing Degree Days 24 (Base 50)    
Moisture  
Dew Point 71 °F    
Average Humidity 95    
Maximum Humidity 100    
Minimum Humidity 84    
Precipitation  
Precipitation 0.75 in - - ()
Sea Level Pressure  
Sea Level Pressure 30.08 in    
Wind  
Wind Speed 6 mph (South)    
Max Wind Speed 13 mph    
Max Gust Speed 18 mph    
Visibility 8 miles    
Events Rain , Thunderstorm    
Averages and records for this station are not official NWS values.
T = Trace of Precipitation, MM = Missing Value Source: NWS Daily Summary

Daily Weather History Graph

Daily Weather History Graph

Search for Another Location

Airport or City:

Trip Planner

Search our weather history database for the weather conditions in past years. The results will help you decide how hot, cold, wet, or windy it might be!

Date:

Astronomy

Jul. 02, 2013 Rise Set
Actual Time 6:14 AM EDT 8:42 PM EDT
Civil Twilight 5:44 AM EDT 9:12 PM EDT
Nautical Twilight 5:07 AM EDT 9:49 PM EDT
Astronomical Twilight 4:27 AM EDT 10:29 PM EDT
Moon 2:09 AM EDT (7/2) 4:00 PM EDT (7/2)
Length of Visible Light 15h 27m
Length of Day
14h 28m
Waning Crescent, 26% of the Moon is Illuminated
Jul 2
Waning Crescent
Jul 8
New
Jul 15
First Quarter
Jul 22
Full
Jul 29
Last Quarter

Hourly Weather History & Observations

Time (EDT) Temp. Dew Point Humidity Pressure Visibility Wind Dir Wind Speed Gust Speed Precip Events Conditions
12:42 AM 73.4 °F 71.6 °F 94% 30.00 in 10.0 mi South 5.8 mph - N/A   Mostly Cloudy
12:50 AM 73.4 °F 71.6 °F 94% 30.00 in 10.0 mi South 5.8 mph - N/A   Overcast
12:54 AM 73.0 °F 71.1 °F 93% 29.98 in 10.0 mi Variable 4.6 mph - N/A   Overcast
1:04 AM 73.4 °F 71.6 °F 94% 30.00 in 10.0 mi South 4.6 mph - N/A   Overcast
1:35 AM 73.4 °F 71.6 °F 94% 30.00 in 10.0 mi Variable 3.5 mph - N/A   Overcast
1:54 AM 73.0 °F 71.1 °F 93% 29.98 in 10.0 mi Variable 5.8 mph - N/A   Overcast
2:54 AM 73.0 °F 71.1 °F 93% 29.97 in 10.0 mi South 4.6 mph - N/A   Overcast
3:54 AM 73.0 °F 71.1 °F 93% 29.98 in 10.0 mi South 3.5 mph - N/A   Overcast
4:27 AM 73.4 °F 71.6 °F 94% 30.01 in 10.0 mi South 5.8 mph - N/A   Overcast
4:46 AM 73.4 °F 71.6 °F 94% 30.01 in 10.0 mi South 5.8 mph - N/A   Overcast
4:54 AM 73.0 °F 71.1 °F 93% 29.99 in 10.0 mi SSE 5.8 mph - N/A   Overcast
5:12 AM 71.6 °F 71.6 °F 100% 30.01 in 3.0 mi South 4.6 mph - 0.05 in Rain Heavy Rain
5:20 AM 71.6 °F 71.6 °F 100% 30.01 in 5.0 mi SSE 8.1 mph - 0.05 in Rain Light Rain
5:54 AM 72.0 °F 71.1 °F 97% 30.00 in 9.0 mi South 6.9 mph - 0.05 in Rain Light Rain
6:54 AM 71.1 °F 70.0 °F 96% 30.02 in 10.0 mi South 5.8 mph - N/A   Overcast
7:54 AM 72.0 °F 70.0 °F 93% 30.04 in 10.0 mi South 5.8 mph - 0.00 in   Overcast
8:54 AM 72.0 °F 71.1 °F 97% 30.06 in 5.0 mi South 8.1 mph - 0.03 in Rain Light Rain
9:02 AM 71.6 °F 71.6 °F 100% 30.08 in 10.0 mi South 5.8 mph - 0.00 in   Overcast
9:10 AM 71.6 °F 71.6 °F 100% 30.08 in 10.0 mi South 4.6 mph - 0.00 in   Overcast
10:40 AM 73.4 °F 71.6 °F 94% 30.10 in 10.0 mi South 6.9 mph - N/A   Overcast
10:54 AM 73.9 °F 70.0 °F 87% 30.09 in 10.0 mi SSW 8.1 mph - N/A   Overcast
11:54 AM 75.0 °F 72.0 °F 90% 30.08 in 5.0 mi South 4.6 mph - 0.00 in Rain Light Rain
12:19 PM 75.2 °F 71.6 °F 89% 30.10 in 2.5 mi SSE 5.8 mph - 0.03 in Rain Rain
12:26 PM 73.4 °F 71.6 °F 94% 30.10 in 3.0 mi Calm Calm - 0.03 in Rain Light Rain
12:34 PM 75.2 °F 73.4 °F 94% 30.10 in 10.0 mi SSE 3.5 mph - 0.03 in   Overcast
12:54 PM 77.0 °F 72.0 °F 84% 30.07 in 10.0 mi Variable 6.9 mph - 0.03 in   Overcast
1:50 PM 75.2 °F 71.6 °F 89% 30.08 in 5.0 mi South 4.6 mph - 0.02 in Rain Rain
1:54 PM 75.9 °F 71.1 °F 85% 30.06 in 6.0 mi South 5.8 mph - 0.02 in Rain Rain
2:17 PM 73.4 °F 71.6 °F 94% 30.08 in 2.5 mi South 9.2 mph 16.1 mph 0.05 in Rain Light Rain
2:20 PM 73.4 °F 71.6 °F 94% 30.09 in 3.0 mi South 8.1 mph 16.1 mph 0.06 in Rain Light Rain
2:33 PM 73.4 °F 71.6 °F 94% 30.09 in 3.0 mi SSW 5.8 mph - 0.08 in Rain Rain
2:36 PM 73.4 °F 71.6 °F 94% 30.09 in 2.5 mi SSW 5.8 mph - 0.10 in Rain Rain
2:45 PM 73.4 °F 71.6 °F 94% 30.10 in 1.8 mi SW 9.2 mph - 0.16 in Rain Light Rain
2:54 PM 72.0 °F 71.1 °F 97% 30.08 in 0.8 mi SSW 12.7 mph 18.4 mph 0.34 in Rain , Thunderstorm Heavy Thunderstorms and Rain
3:09 PM 71.6 °F 71.6 °F 100% 30.10 in 1.0 mi SSW 9.2 mph - 0.24 in Rain Rain
3:13 PM 71.6 °F 71.6 °F 100% 30.10 in 2.0 mi SSW 6.9 mph 16.1 mph 0.24 in Rain Light Rain
3:20 PM 71.6 °F 71.6 °F 100% 30.10 in 6.0 mi SSW 5.8 mph - 0.24 in Rain Light Rain
3:38 PM 71.6 °F 71.6 °F 100% 30.10 in 2.5 mi South 6.9 mph - 0.25 in Rain Light Rain
3:49 PM 73.4 °F 71.6 °F 94% 30.10 in 5.0 mi South 8.1 mph 16.1 mph 0.26 in Rain Light Rain
3:54 PM 73.0 °F 72.0 °F 96% 30.08 in 8.0 mi South 8.1 mph 16.1 mph 0.26 in Rain Light Rain
4:02 PM 73.4 °F 71.6 °F 94% 30.10 in 10.0 mi South 8.1 mph - 0.00 in   Overcast
4:40 PM 73.4 °F 71.6 °F 94% 30.10 in 7.0 mi Variable 6.9 mph - 0.00 in Rain Light Rain
4:54 PM 73.9 °F 72.0 °F 93% 30.08 in 10.0 mi SSE 6.9 mph - 0.00 in   Overcast
5:01 PM 73.4 °F 71.6 °F 94% 30.10 in 10.0 mi SSE 9.2 mph - N/A   Overcast
5:11 PM 73.4 °F 71.6 °F 94% 30.10 in 10.0 mi SSE 9.2 mph - N/A   Overcast
5:18 PM 73.4 °F 71.6 °F 94% 30.10 in 10.0 mi South 5.8 mph - N/A   Overcast
5:54 PM 73.0 °F 71.1 °F 93% 30.09 in 10.0 mi South 6.9 mph - N/A   Overcast
6:45 PM 73.4 °F 71.6 °F 94% 30.11 in 10.0 mi SSE 9.2 mph - N/A   Overcast
6:54 PM 73.9 °F 71.1 °F 91% 30.10 in 10.0 mi South 5.8 mph - N/A   Overcast
7:54 PM 73.0 °F 70.0 °F 90% 30.11 in 10.0 mi South 4.6 mph - N/A   Mostly Cloudy
8:20 PM 71.6 °F 69.8 °F 94% 30.13 in 10.0 mi SSE 4.6 mph - N/A   Scattered Clouds
8:38 PM 71.6 °F 69.8 °F 94% 30.13 in 10.0 mi Variable 4.6 mph - N/A   Mostly Cloudy
8:54 PM 73.0 °F 71.1 °F 93% 30.12 in 10.0 mi SSE 3.5 mph - N/A   Overcast
9:00 PM 73.4 °F 71.6 °F 94% 30.13 in 10.0 mi SE 5.8 mph - N/A   Overcast
9:08 PM 73.4 °F 71.6 °F 94% 30.14 in 10.0 mi Variable 3.5 mph - N/A   Overcast
9:54 PM 72.0 °F 71.1 °F 97% 30.13 in 10.0 mi Calm Calm - N/A   Overcast
10:13 PM 71.6 °F 71.6 °F 100% 30.15 in 10.0 mi Calm Calm - N/A   Overcast
10:36 PM 71.6 °F 71.6 °F 100% 30.16 in 8.0 mi SE 3.5 mph - 0.00 in Rain Light Rain
10:54 PM 72.0 °F 71.1 °F 97% 30.14 in 9.0 mi SSE 3.5 mph - 0.00 in   Overcast
11:49 PM 71.6 °F 71.6 °F 100% 30.16 in 8.0 mi South 4.6 mph - 0.02 in Rain Light Rain
11:54 PM 72.0 °F 71.1 °F 97% 30.14 in 10.0 mi South 4.6 mph - 0.02 in   Overcast